FW3725 Weather Reports


Display with metric or nautical units.
time (UTC)temp
F
wind
direction
speed
MPH
gust
MPH
rain 1hr
in
rain 24hr
in
rain mn
in
humidity
%
barometer
mb
20260503210017 63 178 0.0 0.0 0.00 0.00 0.00 63 1013.3
20260503204509 63 175 0.0 0.0 0.00 0.00 0.00 62 1013.3
20260503203014 63 171 0.0 0.0 0.00 0.00 0.00 62 1013.5
20260503201510 63 105 0.0 0.0 0.00 0.00 0.00 62 1013.5
20260503200008 63 184 0.0 0.0 0.00 0.00 0.00 62 1013.5
20260503194509 63 199 0.0 0.0 0.00 0.00 0.00 63 1013.6
20260503193007 63 149 0.0 0.0 0.00 0.00 0.00 64 1013.6
20260503191506 62 202 0.0 0.0 0.00 0.00 0.00 65 1013.7
20260503190006 63 325 0.0 0.0 0.00 0.00 0.00 65 1013.8
20260503184504 62 282 0.0 0.0 0.00 0.00 0.00 65 1013.7
20260503183107 61 300 0.0 0.0 0.00 0.00 0.00 68 1013.9
20260503181559 61 329 0.0 0.0 0.00 0.00 0.00 68 1013.9
20260503180054 61 277 0.0 0.0 0.00 0.00 0.00 67 1013.9
20260503174608 60 176 0.0 0.0 0.00 0.00 0.00 69 1013.8
20260503173058 59 298 0.0 0.0 0.00 0.00 0.00 71 1013.8
20260503171545 57 281 0.0 0.0 0.00 0.00 0.00 74 1013.9
20260503090106 54 277 0.0 0.0 0.00 0.00 0.00 80 1012.3
20260503081558 55 284 0.0 0.0 0.00 0.00 0.00 80 1012.6
20260503071607 55 298 0.0 0.0 0.00 0.00 0.00 79 1012.9
20260503060144 55 270 0.0 0.0 0.00 0.00 0.00 79 1013.0
20260503054554 55 74 0.0 0.0 0.00 0.00 0.00 79 1013.2
20260503053041 56 54 0.0 1.0 0.00 0.00 0.00 79 1013.1
20260503051548 56 283 0.0 2.0 0.00 0.00 0.00 79 1013.2
20260503050040 56 30 0.0 0.0 0.00 0.00 0.00 78 1013.1
20260503044539 56 277 0.0 1.0 0.00 0.00 0.00 78 1012.9
20260503043041 56 283 0.0 1.0 0.00 0.00 0.00 78 1012.8
20260503041539 56 269 0.0 3.0 0.00 0.00 0.00 78 1012.6
20260503040040 56 265 0.0 8.0 0.00 0.00 0.00 78 1012.4
20260503034544 56 53 0.0 3.0 0.00 0.00 0.00 77 1012.1
20260503033050 57 271 0.0 0.0 0.00 0.00 0.00 77 1012.0
20260503031538 57 175 0.0 3.0 0.00 0.00 0.00 77 1011.9
20260503030038 57 281 0.0 1.0 0.00 0.00 0.00 77 1011.8
20260503024544 57 225 0.0 2.0 0.00 0.00 0.00 76 1011.6
20260503023034 58 80 0.0 2.0 0.00 0.00 0.00 75 1011.5
20260503021535 59 274 0.0 0.0 0.00 0.00 0.00 75 1011.4
20260503020033 60 239 0.0 1.0 0.00 0.00 0.00 74 1011.4
20260503014533 61 271 0.0 1.0 0.00 0.00 0.00 73 1011.4
20260503013036 61 335 0.0 2.0 0.00 0.00 0.00 73 1011.5
20260503011531 62 287 0.0 0.0 0.00 0.00 0.00 72 1011.4
20260503010033 62 276 0.0 3.0 0.00 0.00 0.00 72 1011.4
20260503004536 63 72 0.0 1.0 0.00 0.00 0.00 70 1011.4
20260503003036 64 276 0.0 6.0 0.00 0.00 0.00 70 1011.5
20260503001529 64 69 0.0 2.0 0.00 0.00 0.00 70 1011.4
20260503000028 64 89 0.0 5.0 0.00 0.00 0.00 69 1011.6
20260502234533 65 55 0.0 3.0 0.00 0.00 0.00 70 1011.5
20260502233027 65 261 0.0 2.0 0.00 0.00 0.00 68 1011.7
20260502231528 65 78 0.0 7.0 0.00 0.00 0.00 69 1011.8
20260502230023 65 271 0.0 5.0 0.00 0.00 0.00 70 1012.1
20260502224521 65 86 0.0 6.0 0.00 0.00 0.00 67 1012.3
20260502223019 65 248 0.0 4.0 0.00 0.00 0.00 68 1012.5
20260502221516 65 217 0.0 5.0 0.00 0.00 0.00 68 1013.0
20260502220021 66 262 0.0 4.0 0.00 0.00 0.00 69 1013.1
20260502214517 66 271 0.0 4.0 0.00 0.00 0.00 70 1013.2
20260502213032 65 141 0.0 5.0 0.00 0.00 0.00 70 1013.4
20260502211518 65 98 0.0 5.0 0.00 0.00 0.00 72 1013.4